Theta_e
320 319 317 318 319 320 322 322 322 324 325 323 323 322 323 323 324 324 324 325 326 337 335 335 337 340 344 338 336 353 355 355 357 358 357 356 355 353 352 350 349 349 345 344
321 321 321 320 320 321 322 322 322 323 324 323 322 322 323 323 323 324 324 324 326 334 337 336 338 342 344 346 343 349 351 357 355 358 358 357 356 355 353 352 350 347 347 345
322 322 323 324 323 323 322 322 323 322 323 323 322 321 322 322 323 323 325 331 331 332 335 338 341 343 344 346 346 346 345 354 358 357 357 357 357 356 354 352 350 347 347 345
322 322 323 323 322 322 322 322 322 322 323 322 323 323 326 323 324 324 328 330 331 333 335 340 344 343 344 347 351 355 345 344 354 357 356 358 356 356 354 352 349 348 347 346
324 324 323 323 323 323 322 322 322 322 322 322 322 322 323 325 325 327 327 328 331 334 338 341 340 340 342 345 348 351 352 353 354 354 356 354 355 355 354 353 352 349 348 346
322 322 324 324 324 324 323 322 322 323 323 324 323 323 324 325 328 327 329 332 333 335 336 337 336 337 337 338 341 343 344 346 349 351 351 351 351 352 354 354 352 351 351 347
324 323 322 324 324 323 322 323 324 325 326 325 324 324 326 330 327 329 333 334 334 334 333 330 333 335 334 334 335 335 337 339 340 343 347 349 349 351 351 350 352 352 351 350
322 323 323 323 324 323 323 324 324 327 328 325 327 331 335 336 334 335 335 334 332 332 328 327 329 330 330 329 331 334 333 333 334 335 339 342 343 344 348 347 348 351 351 351
324 325 324 323 322 321 321 323 323 327 327 327 328 333 336 336 336 335 333 331 331 332 327 324 324 323 322 326 328 332 333 333 332 333 333 335 340 343 340 341 347 348 348 349
321 323 322 323 322 320 320 321 322 326 330 329 328 334 339 332 334 330 326 330 327 325 324 324 324 323 323 323 323 323 323 329 329 329 331 331 332 337 339 341 339 344 346 349
319 320 322 323 322 321 322 321 321 322 331 331 329 328 333 332 332 327 326 324 323 324 323 322 320 320 320 320 320 321 322 322 323 325 328 329 330 331 335 337 340 339 339 344
318 320 324 324 324 325 325 325 325 327 326 330 332 332 331 330 327 326 324 322 320 318 318 318 317 317 317 317 317 318 318 319 320 320 320 328 327 329 330 331 336 340 338 340
316 321 324 322 319 323 325 323 324 324 328 329 333 334 326 326 324 323 323 321 320 319 318 318 317 316 316 315 315 316 316 317 318 319 319 319 327 326 324 326 328 333 338 336
314 316 319 321 322 322 324 322 319 320 326 323 322 322 326 325 322 320 319 319 318 318 317 316 316 316 315 314 314 314 315 315 317 318 318 318 319 325 324 323 323 325 329 337
315 317 317 317 317 319 321 318 316 317 318 318 318 320 321 321 322 321 319 317 316 315 315 314 315 315 314 314 314 314 314 314 315 316 318 318 318 318 324 321 321 322 323 325
319 320 318 319 317 316 317 314 314 314 315 316 316 316 319 318 319 316 315 314 314 314 314 315 314 313 313 313 313 314 314 314 314 314 315 317 317 317 322 321 319 319 322 323
317 320 321 321 318 318 318 315 315 315 314 314 315 315 315 314 314 314 315 315 314 315 315 314 313 313 313 313 313 313 313 313 313 314 314 315 317 317 317 322 320 319 321 323
315 316 319 320 319 321 317 314 313 312 313 312 313 314 314 315 315 314 314 316 316 315 314 314 312 313 312 312 312 312 312 312 312 313 313 313 314 316 317 318 321 319 318 320
313 315 317 320 318 316 315 314 312 312 313 311 312 313 315 315 314 317 315 314 314 313 313 313 312 311 311 310 310 310 311 312 312 312 313 313 313 315 317 318 320 321 320 320
313 315 316 316 322 317 319 314 312 312 315 317 316 316 316 315 315 317 314 313 314 312 311 312 310 310 309 310 310 310 309 309 309 310 311 312 313 313 314 317 319 319 320 321
313 313 318 319 319 316 316 315 313 312 320 316 316 315 315 315 315 315 314 312 311 311 310 310 309 310 309 309 309 309 309 309 309 310 311 311 312 314 314 313 315 318 319 318
318 315 315 316 318 317 315 315 314 320 317 315 314 314 313 313 313 313 312 312 311 311 310 310 310 309 309 309 309 309 310 310 310 310 310 310 310 311 312 312 315 316 318 319
319 317 320 319 316 318 317 317 317 315 315 313 313 313 313 313 313 312 312 311 311 309 310 309 308 308 309 309 310 311 311 311 311 311 312 312 311 312 312 312 312 314 316 319
316 315 321 318 315 316 317 316 315 314 313 312 312 312 312 312 311 311 311 311 310 309 309 309 308 308 308 309 309 310 310 311 310 312 312 312 313 313 313 313 312 312 314 315
312 312 314 313 312 314 314 314 314 313 312 313 312 311 311 311 310 310 310 310 308 308 308 308 308 309 309 309 310 310 310 310 311 311 312 312 312 312 313 312 312 313 314 314
310 310 316 315 313 314 315 314 313 312 313 312 312 311 310 309 309 308 309 307 308 308 307 307 307 308 309 310 310 310 310 309 311 311 311 311 312 313 312 313 313 313 313 312
Wind_Speed
15 13 15 18 20 21 21 23 22 17 13 13 13 14 14 15 10 12 12 11 9 15 14 12 10 9 10 5 2 14 15 17 13 22 22 19 20 20 19 21 18 14 23 21
14 17 17 18 20 20 22 22 22 16 19 11 8 13 15 16 13 14 12 13 12 15 14 10 8 9 9 7 5 4 11 12 20 14 18 20 20 18 19 21 16 19 16 24
18 19 20 21 19 21 21 16 16 17 19 19 16 14 18 20 17 12 11 10 10 10 10 8 10 8 6 5 6 3 1 9 15 17 16 17 12 16 17 19 21 23 21 22
19 20 22 22 15 16 21 15 19 19 18 15 13 14 18 20 17 14 11 9 8 9 6 9 12 11 7 12 16 20 4 2 9 12 16 14 16 15 17 19 24 23 22 22
21 21 21 24 23 18 20 17 17 20 16 17 22 13 16 15 18 18 12 9 10 11 11 14 13 13 12 15 17 19 25 21 6 11 15 12 13 14 15 18 19 21 23 25
22 24 23 24 23 20 15 19 17 17 14 14 20 19 17 14 15 19 17 13 10 14 14 13 15 13 16 18 18 19 21 22 21 13 4 10 14 11 11 13 12 20 19 22
18 22 24 24 16 16 11 9 10 14 14 15 17 18 15 3 5 23 20 15 11 12 15 10 9 16 17 18 19 20 20 22 21 22 18 10 7 11 14 16 11 10 19 22
15 19 15 13 17 18 14 13 12 18 14 14 8 8 4 16 17 21 17 12 12 12 14 12 7 16 16 16 16 17 19 19 19 20 19 17 15 12 10 12 16 16 15 13
11 16 17 4 4 16 14 16 14 9 15 14 15 7 11 10 12 9 13 12 10 11 10 13 10 13 12 19 16 13 15 17 18 18 19 21 21 16 16 12 12 15 14 14
11 18 21 16 12 16 17 16 10 6 5 12 16 9 6 8 16 14 21 6 9 5 9 7 12 11 11 14 17 14 16 13 14 14 15 17 19 18 17 15 13 10 8 10
14 14 21 9 10 11 12 15 16 13 7 5 11 4 2 14 11 11 14 14 16 6 10 8 8 10 13 13 15 16 13 16 16 15 12 13 15 16 17 19 15 13 11 9
11 9 13 21 12 14 16 12 4 5 11 5 6 5 5 10 12 15 10 1 9 9 10 9 12 12 12 13 13 13 13 12 15 16 16 11 12 13 14 15 16 14 12 10
10 5 8 12 15 1 7 11 17 13 7 13 4 1 4 5 11 10 13 15 15 3 7 6 9 13 13 13 13 14 14 14 15 12 13 17 12 10 13 15 15 15 10 8
2 8 12 12 6 3 9 16 16 10 11 14 12 10 10 10 10 4 2 3 3 4 4 4 4 7 12 13 15 15 15 15 15 14 15 15 19 14 7 10 13 13 15 8
3 13 14 17 19 11 18 12 13 14 13 12 13 6 3 5 8 7 5 3 7 4 6 6 7 9 14 17 15 15 16 18 18 16 16 17 15 19 8 7 11 11 10 11
7 11 14 17 18 16 18 16 9 14 15 16 13 12 13 7 10 10 6 6 4 4 6 9 11 14 15 17 17 17 16 16 19 20 19 18 18 19 18 6 6 12 9 9
10 7 10 13 15 13 12 10 11 12 12 13 13 8 7 4 3 2 5 8 8 7 10 9 10 13 14 16 17 16 18 19 18 19 21 20 20 18 21 12 10 7 9 12
13 10 8 11 12 11 10 2 4 9 11 12 12 4 3 4 8 5 8 11 12 11 10 9 13 14 17 22 22 23 22 19 19 20 19 22 23 22 21 18 17 14 8 10
12 9 7 3 9 11 12 8 4 5 10 6 2 9 11 10 2 12 13 11 8 8 11 13 16 16 18 20 21 20 21 23 21 22 21 19 22 24 23 20 14 7 12 15
12 11 8 10 5 4 6 2 6 4 2 16 14 13 9 4 4 6 5 8 7 11 13 15 16 18 18 20 15 15 19 21 22 23 27 26 23 22 25 24 22 11 12 20
6 9 9 9 7 6 5 4 4 7 4 4 11 10 8 7 7 10 10 10 12 16 17 19 15 16 15 15 14 12 16 16 18 21 23 25 26 24 22 28 25 23 17 21
7 5 9 10 9 9 4 10 4 5 5 7 5 7 8 8 10 12 12 12 15 17 16 18 14 15 15 17 18 17 18 19 19 20 20 22 26 27 25 27 24 22 22 21
2 7 2 4 2 6 2 6 6 1 3 3 8 8 8 9 11 13 13 12 12 16 18 14 14 17 19 21 16 16 17 19 19 21 22 22 24 25 23 23 25 24 21 22
5 9 3 7 6 6 7 7 7 2 0 1 6 7 10 11 12 12 9 7 12 17 16 13 11 14 19 21 21 23 24 16 21 21 22 22 20 24 23 22 22 22 20 22
8 2 9 8 5 4 6 8 10 8 5 9 9 7 7 9 11 10 9 9 13 15 13 15 15 16 17 19 20 23 19 21 21 19 19 20 19 20 20 19 21 22 21 22
11 10 4 5 7 3 4 2 4 5 6 6 7 9 11 13 12 16 12 16 15 14 15 17 17 22 21 17 21 18 16 16 16 16 17 19 19 21 18 20 21 21 21 18
Wind_Direction
230 240 240 236 237 252 268 278 287 293 239 183 217 258 240 251 193 207 211 235 233 110 102 69 51 47 65 26 344 174 182 200 191 174 185 208 209 220 220 225 223 210 205 203
246 238 251 256 257 253 254 257 271 280 287 283 230 244 264 265 233 214 219 226 211 120 107 91 74 54 55 43 23 128 186 188 203 205 198 205 218 225 225 214 218 213 201 199
252 253 246 235 250 267 253 272 270 267 270 264 248 261 258 252 241 231 194 40 97 94 93 114 94 66 47 59 65 82 276 202 197 211 222 223 235 226 233 208 214 222 216 213
253 262 262 270 249 260 268 241 260 263 274 263 207 251 243 236 211 205 148 143 129 117 124 98 82 67 75 58 46 33 55 298 202 210 240 226 216 234 247 219 200 211 213 211
259 266 257 263 259 253 259 274 264 264 243 267 271 257 269 236 209 169 174 176 136 121 89 82 72 60 52 59 52 37 42 51 43 193 220 246 242 241 250 258 202 206 213 217
271 277 271 269 265 252 256 262 255 262 272 241 248 261 266 243 214 162 160 140 143 119 101 99 100 82 57 57 66 50 47 41 39 37 355 242 263 283 272 285 240 198 204 212
262 250 255 255 260 256 239 242 253 249 239 249 245 246 252 26 237 169 142 142 131 133 114 100 89 89 68 60 53 61 51 45 40 37 32 19 298 301 287 281 294 274 222 206
299 295 338 1 274 230 226 230 237 253 260 261 282 329 344 52 83 110 118 140 142 143 109 106 80 93 96 76 62 53 59 50 42 35 39 31 27 10 317 298 288 288 281 259
314 294 347 241 221 308 272 258 240 272 292 280 270 139 94 69 70 91 116 136 131 105 109 116 93 78 73 87 68 64 77 68 47 38 30 22 29 25 16 350 306 298 280 262
313 305 306 287 203 241 284 306 276 148 244 266 272 166 216 325 351 16 9 96 104 124 129 88 97 55 61 71 86 49 28 62 60 45 43 28 16 15 12 5 354 328 308 255
310 287 281 287 254 271 240 220 241 262 147 252 278 296 33 169 167 60 31 10 342 26 42 48 53 63 35 32 22 34 22 6 33 26 28 36 17 15 12 6 360 347 321 286
338 300 290 288 233 207 299 314 176 291 264 5 308 301 350 103 124 128 157 272 354 352 23 26 26 46 33 24 20 24 4 6 7 1 354 16 22 6 11 7 358 350 340 317
353 316 305 297 266 36 325 287 270 290 242 224 233 171 30 179 176 169 165 174 196 169 91 353 15 8 17 11 4 360 350 357 352 351 342 334 343 2 1 359 359 357 349 334
0 276 278 284 273 189 277 312 315 261 237 263 257 292 137 228 240 193 318 298 318 25 355 354 8 355 358 349 351 346 340 347 338 334 330 327 319 323 340 354 348 350 353 346
235 270 283 287 287 229 234 240 256 279 281 275 280 292 303 248 243 230 182 266 287 302 322 349 16 6 351 343 338 334 337 329 326 331 319 310 307 309 304 335 334 336 342 345
321 286 283 288 288 272 287 272 267 275 272 273 280 287 121 243 192 172 218 265 268 330 327 25 12 352 336 329 332 331 318 321 324 320 308 306 303 300 294 270 301 317 328 331
268 290 291 283 286 317 275 293 306 280 255 271 261 268 23 21 59 341 7 353 321 355 33 8 347 333 328 321 310 314 318 314 309 310 308 303 304 294 293 273 274 282 318 317
265 264 279 289 290 274 268 259 323 307 296 291 289 267 171 212 92 46 352 37 29 14 357 339 325 329 332 332 324 325 319 306 301 299 302 304 300 296 290 294 257 251 260 293
227 236 268 264 283 285 297 22 314 328 320 216 306 202 70 42 39 71 40 15 351 336 341 340 330 332 330 313 306 311 314 314 313 306 298 295 300 304 309 291 295 261 294 302
203 213 234 261 272 257 66 4 355 341 204 350 22 62 53 22 281 112 78 307 357 348 336 320 344 325 315 312 316 316 306 302 302 302 309 313 306 296 302 307 303 287 266 263
255 219 223 248 254 275 261 302 345 259 84 21 21 20 7 351 348 326 350 354 336 325 336 326 328 307 317 311 307 290 293 298 297 304 307 305 306 310 294 291 292 288 280 271
217 232 223 232 242 256 93 202 286 101 50 347 351 350 355 341 319 314 321 324 328 309 318 309 315 329 314 302 300 307 287 283 285 285 289 290 298 301 294 306 302 288 279 264
292 252 304 20 293 332 342 139 181 136 26 350 348 4 353 323 313 319 322 324 284 309 294 320 318 311 300 306 293 285 291 289 288 288 291 282 282 286 288 286 290 297 292 264
255 10 316 126 238 265 259 246 251 154 273 338 35 346 334 326 313 310 304 314 317 300 305 315 309 301 299 303 302 299 288 297 290 287 298 296 286 282 282 278 278 277 279 278
274 128 266 315 308 296 76 51 27 31 6 22 24 329 326 323 307 302 316 317 316 314 318 301 300 295 303 306 306 300 297 300 294 298 299 300 294 291 290 284 278 276 275 274
291 309 296 289 323 334 104 14 341 341 38 2 346 339 328 319 309 316 328 319 314 319 318 317 308 311 302 305 299 294 292 291 295 297 302 307 307 302 296 287 288 280 273 274